Wetterdaten: aktuell Freitag, 17.08.2018 00:59
Datum Zeit Temperatur Bodentemp. Luftfeuchte Luftdruck Regen Wind Richtung Richtung Sonnenschein
17.08.2018 00:59 17,6 C 10,4 C 64 % 1014 hPa 0,0 l/m 27,3 km/h (5 Bft) W-SW67.5 250 0 min
17.08.2018 00:54 17,8 C 10,5 C 64 % 1014 hPa 0,0 l/m 27,3 km/h (5 Bft) W-SW67.5 250 0 min
17.08.2018 00:48 18,0 C 10,6 C 64 % 1014 hPa 0,0 l/m 27,3 km/h (5 Bft) W-SW67.5 250 0 min
17.08.2018 00:44 18,3 C 11,0 C 62 % 1014 hPa 0,0 l/m 27,3 km/h (5 Bft) W-SW67.5 250 0 min
17.08.2018 00:39 18,2 C 10,8 C 62 % 1014 hPa 0,0 l/m 27,3 km/h (5 Bft) W-SW67.5 250 0 min
17.08.2018 00:34 18,5 C 10,8 C 61 % 1014 hPa 0,0 l/m 27,3 km/h (5 Bft) W-SW67.5 250 0 min
17.08.2018 00:29 18,7 C 10,8 C 60 % 1014 hPa 0,0 l/m 27,3 km/h (5 Bft) W-SW67.5 250 0 min
17.08.2018 00:24 18,7 C 10,9 C 59 % 1014 hPa 0,0 l/m 27,3 km/h (5 Bft) W-SW67.5 250 0 min
17.08.2018 00:19 18,7 C 10,9 C 58 % 1014 hPa 0,0 l/m 27,3 km/h (5 Bft) W-SW67.5 250 0 min
17.08.2018 00:13 18,9 C 10,9 C 58 % 1014 hPa 0,0 l/m 27,3 km/h (5 Bft) W-SW67.5 250 0 min
17.08.2018 00:09 18,9 C 10,9 C 57 % 1014 hPa 0,0 l/m 27,3 km/h (5 Bft) W-SW67.5 250 0 min
17.08.2018 00:04 19,0 C 11,2 C 58 % 1014 hPa 0,0 l/m 27,3 km/h (5 Bft) W-SW67.5 250 0 min
16.08.2018 23:59 19,1 C 11,2 C 57 % 1014 hPa 0,0 l/m 27,3 km/h (5 Bft) W-SW67.5 250 0 min
16.08.2018 23:54 19,0 C 11,3 C 56 % 1014 hPa 0,0 l/m 27,3 km/h (5 Bft) W-SW67.5 250 0 min
16.08.2018 23:48 19,1 C 11,4 C 57 % 1014 hPa 0,0 l/m 27,3 km/h (5 Bft) W-SW67.5 250 0 min
16.08.2018 23:44 19,2 C 11,4 C 54 % 1014 hPa 0,0 l/m 27,3 km/h (5 Bft) W-SW67.5 250 0 min
16.08.2018 23:39 19,4 C 11,8 C 55 % 1014 hPa 0,0 l/m 27,3 km/h (5 Bft) W-SW67.5 250 0 min
16.08.2018 23:33 19,9 C 11,6 C 53 % 1014 hPa 0,0 l/m 27,3 km/h (5 Bft) W-SW67.5 250 0 min
16.08.2018 23:29 20,1 C 12,1 C 52 % 1014 hPa 0,0 l/m 27,3 km/h (5 Bft) W-SW67.5 250 0 min
16.08.2018 23:24 20,2 C 12,2 C 51 % 1014 hPa 0,0 l/m 27,3 km/h (5 Bft) W-SW67.5 250 0 min
16.08.2018 23:19 20,6 C 12,6 C 49 % 1014 hPa 0,0 l/m 27,3 km/h (5 Bft) W-SW67.5 250 0 min
16.08.2018 23:13 20,9 C 13,3 C 48 % 1014 hPa 0,0 l/m 27,3 km/h (5 Bft) W-SW67.5 250 0 min
16.08.2018 23:09 21,1 C 13,5 C 47 % 1014 hPa 0,0 l/m 27,3 km/h (5 Bft) W-SW67.5 250 0 min
16.08.2018 23:04 21,1 C 13,5 C 46 % 1014 hPa 0,0 l/m 27,3 km/h (5 Bft) W-SW67.5 250 0 min
16.08.2018 22:58 21,2 C 13,7 C 46 % 1014 hPa 0,0 l/m 27,3 km/h (5 Bft) W-SW67.5 250 0 min
16.08.2018 22:54 21,1 C 13,5 C 47 % 1014 hPa 0,0 l/m 27,3 km/h (5 Bft) W-SW67.5 250 0 min
16.08.2018 22:49 21,0 C 12,9 C 47 % 1014 hPa 0,0 l/m 27,3 km/h (5 Bft) W-SW67.5 250 0 min
16.08.2018 22:44 20,8 C 12,3 C 46 % 1014 hPa 0,0 l/m 27,3 km/h (5 Bft) W-SW67.5 250 0 min
16.08.2018 22:38 21,0 C 12,4 C 46 % 1014 hPa 0,0 l/m 27,3 km/h (5 Bft) W-SW67.5 250 0 min
16.08.2018 22:34 20,9 C 12,6 C 47 % 1014 hPa 0,0 l/m 27,3 km/h (5 Bft) W-SW67.5 250 0 min
16.08.2018 22:29 20,8 C 12,3 C 47 % 1014 hPa 0,0 l/m 27,3 km/h (5 Bft) W-SW67.5 250 0 min
16.08.2018 22:23 20,9 C 12,3 C 45 % 1014 hPa 0,0 l/m 27,3 km/h (5 Bft) W-SW67.5 250 0 min
16.08.2018 22:19 20,9 C 12,3 C 46 % 1014 hPa 0,0 l/m 27,3 km/h (5 Bft) W-SW67.5 250 0 min
16.08.2018 22:14 21,1 C 12,4 C 46 % 1014 hPa 0,0 l/m 27,3 km/h (5 Bft) W-SW67.5 250 0 min
16.08.2018 22:09 21,2 C 12,6 C 45 % 1014 hPa 0,0 l/m 27,3 km/h (5 Bft) W-SW67.5 250 0 min
16.08.2018 22:03 21,4 C 12,7 C 43 % 1014 hPa 0,0 l/m 27,3 km/h (5 Bft) W-SW67.5 250 0 min
16.08.2018 21:59 21,6 C 12,8 C 41 % 1014 hPa 0,0 l/m 27,3 km/h (5 Bft) W-SW67.5 250 0 min
16.08.2018 21:54 21,6 C 13,0 C 40 % 1014 hPa 0,0 l/m 27,3 km/h (5 Bft) W-SW67.5 250 0 min
16.08.2018 21:49 21,7 C 12,9 C 40 % 1014 hPa 0,0 l/m 27,3 km/h (5 Bft) W-SW67.5 250 0 min
16.08.2018 21:44 21,8 C 12,9 C 39 % 1014 hPa 0,0 l/m 27,3 km/h (5 Bft) W-SW67.5 250 0 min
16.08.2018 21:39 21,8 C 13,0 C 39 % 1014 hPa 0,0 l/m 27,3 km/h (5 Bft) W-SW67.5 250 0 min
16.08.2018 21:34 21,9 C 13,1 C 39 % 1014 hPa 0,0 l/m 27,3 km/h (5 Bft) W-SW67.5 250 0 min
16.08.2018 21:28 22,1 C 13,2 C 39 % 1014 hPa 0,0 l/m 27,3 km/h (5 Bft) W-SW67.5 250 0 min
16.08.2018 21:24 22,3 C 13,3 C 37 % 1014 hPa 0,0 l/m 27,3 km/h (5 Bft) W-SW67.5 250 0 min
16.08.2018 21:19 22,5 C 13,4 C 37 % 1014 hPa 0,0 l/m 27,3 km/h (5 Bft) W-SW67.5 250 0 min
16.08.2018 21:13 22,7 C 13,6 C 36 % 1014 hPa 0,0 l/m 27,3 km/h (5 Bft) W-SW67.5 250 0 min
16.08.2018 21:09 23,0 C 13,9 C 34 % 1014 hPa 0,0 l/m 27,3 km/h (5 Bft) W-SW67.5 250 0 min
16.08.2018 21:04 23,2 C 14,1 C 34 % 1014 hPa 0,0 l/m 27,3 km/h (5 Bft) W-SW67.5 250 0 min
16.08.2018 20:59 23,6 C 14,2 C 32 % 1013 hPa 0,0 l/m 27,3 km/h (5 Bft) W-SW67.5 250 0 min
_ Min-Zeit 06:49 06:59 11:38 16:04 - 01:04 - - -
Minimum _ 15,5 C 8,6 C 5 % 1013 hPa - 27,3 km/h (5 Bft) - - -
_ Max-Zeit 17:34 17:04 07:14 01:04 01:04 01:04 - - 09:09
Maximum _ 31,4 C 19,8 C 80 % 1018 hPa 0,0 l/m 27,3 km/h
W-SW (5 Bft)
- - 6 min
Durchschnitt _ 23,4 C 14,3 C 36 % 1015 hPa #0,0 l/m 27,3 km/h (5 Bft) W-SW - #0 min.